Regional Weather Roundup
Issued by NWS Glasgow, MT

Home | Current Version | Previous Version | Text Only | Print | Product List | Glossary On
Versions: 1 2 3 4 5 6 7 8 9 10 11 12 13 14 15 16 17 18 19 20 21 22 23 24 25 26 27 28 29 30 31 32 33 34 35 36 37 38 39 40 41 42 43 44 45 46 47 48 49 50
000
ASUS45 KGGW 190715
RWRGGW
HOURLY WEATHER ROUNDUP FOR NORTHEAST MONTANA
NATIONAL WEATHER SERVICE GLASGOW MONTANA
1200 AM MST FRI DEC 19 2014

NOTE: "FAIR" INDICATES FEW OR NO CLOUDS BELOW 12,000 FEET WITH NO
SIGNIFICANT WEATHER AND/OR OBSTRUCTIONS TO VISISBILITY.

NORTHEAST MONTANA


CITY           SKY/WX    TMP DP  RH WIND       PRES   REMARKS
GLASGOW        MOCLDY    20  17  88 CALM      29.91S
PLENTYWOOD       N/A    N/A N/A N/A N3          N/A
WOLF POINT     CLOUDY    20  17  88 CALM      29.93S FOG
JORDAN           N/A     28  25  88 W10       29.91F
WINNETT          N/A     29  25  85 S1          N/A
SIDNEY         MOCLDY    21  16  79 CALM      29.94S
GLENDIVE       CLOUDY    28  25  86 S5        29.93S
MALTA            N/A     17  16  95 CALM        N/A

FORT PECK REPORTS


CITY           SKY/WX    TMP DP  RH WIND       PRES   REMARKS
FORT PECK        N/A     25  25 100 W2          N/A
THE PINES        N/A     33  29  85 SW5         N/A

SOUTHEAST MONTANA


CITY           SKY/WX    TMP DP  RH WIND       PRES   REMARKS
BILLINGS       PTCLDY    31  20  63 SW18      29.97F
MILES CITY     PTCLDY    28  23  81 S6        29.95S
BAKER          CLOUDY    32  25  75 SW12      29.93F
LIVINGSTON     CLOUDY    38  22  52 SW22G32   29.95S

CENTRAL MONTANA


CITY           SKY/WX    TMP DP  RH WIND       PRES   REMARKS
HAVRE          PTCLDY    28  24  85 SW10      29.89F
LEWISTOWN      CLEAR     30  22  72 SW14      29.92S
GREAT FALLS    PTCLDY    32  25  75 SW14      29.89F
CUT BANK       CLEAR     33  25  72 W16       29.86
HELENA         MOCLDY    25  22  88 S3        29.97F
BUTTE          MOCLDY    19  15  84 SE5       29.99S
BOZEMAN        CLOUDY    27  23  85 CALM      29.99F

WESTERN MONTANA


CITY           SKY/WX    TMP DP  RH WIND       PRES   REMARKS
MISSOULA       CLOUDY    30  28  92 S3        30.02S
KALISPELL      NOT AVBL

NORTH DAKOTA


CITY           SKY/WX    TMP DP  RH WIND       PRES   REMARKS
WILLISTON      FOG       27  26  96 S3        29.92F VSB 1/4
DICKINSON      CLEAR     28  22  78 SW7       29.90F
MINOT          CLOUDY    25  23  92 SE3       29.94F FOG
BISMARCK       CLOUDY    27  25  92 S7        29.99F

SOUTHERN SASKATCHEWAN


CITY           SKY/WX    TMP DP  RH WIND       PRES   REMARKS
REGINA         FOG       23  23 100 SW6       29.90S VSB 1/4
ESTEVAN        LGT SNOW  27  25  93 SW8       29.92S FOG
SWIFT CURRENT  CLOUDY    18  18 100 W7        29.85S




USA.gov is the U.S. government's official web portal to all federal, state and local government web resources and services.